Flag for China Weather past 2 weeks in Lanzhou, Gansu, China

Now
59 °F

Clear.


Feels Like: 59 °F
Forecast: 52 / 82 °F
Wind: 1 mph from North

Location: Lanzhou / Zhongchuan

Current Time: Aug 5, 2015 at 6:14:29 AM

Latest Report: Aug 5, 2015 at 5:00 AM


Visibility: 10 mi

Pressure: 29.98 "Hg (24.97 "Hg at 1543m altitude)

Humidity: 72%

Dew point: 50 °F

Location of LanzhouLocation

Historic Weather in Lanzhou — Graph

°F

Lanzhou temperature yesterday

Maximum temperature yesterday: 82 °F (at 3:00 PM)
Minimum temperature yesterday: 59 °F (at 2:00 AM)
Average temperature yesterday: 68 °F

Past Weeks' High & Low Weather Summary

 TemperatureHumidityPressure
High95 °F (Jul 27, 4:00 PM)94% (Jul 22, 1:00 AM)30.21 "Hg (Jul 22, 1:00 AM)
Low50 °F (Jul 24, 5:00 AM)15% (Jul 27, 4:00 PM)29.77 "Hg (Jul 27, 6:00 PM)
Average71 °F54%29.98 "Hg
* Reported Jul 21 4:00 AM — Aug 5 4:00 AM, Lanzhou, Weather by CustomWeather, © 2015

Note: Actual official high and low records may vary slightly from our data, if they occured in-between our weather recording intervals... More about our weather records

Advertising

Lanzhou weather history for previous 24 hours

 ConditionsComfort  
Time TempWeatherWind HumidityBarometerVisibility
4:00 AM
Wed, Aug 5
57 °FClear.3 mph77%29.98 "Hg10 mi
3:00 AM57 °FClear.6 mph72%29.98 "Hg10 mi
2:00 AM57 °FClear.1 mph77%29.98 "Hg10 mi
1:00 AM59 °FClear.6 mph72%29.98 "Hg10 mi
12:00 AM59 °FClear.6 mph77%29.98 "Hg10 mi
11:00 PM
Tue, Aug 4
61 °FClear.3 mph72%29.98 "Hg10 mi
10:00 PM63 °FClear.3 mph73%29.98 "Hg10 mi
9:00 PM68 °FPassing clouds.3 mph60%29.98 "HgN/A
8:00 PM72 °FPassing clouds.1 mph50%29.95 "HgN/A
7:00 PM75 °FSprinkles. Passing clouds.1 mph39%29.95 "HgN/A
6:00 PM75 °FScattered clouds.8 mph39%29.95 "HgN/A
5:00 PM82 °FScattered clouds.10 mph28%29.95 "HgN/A
4:00 PM82 °FPassing clouds.8 mph28%29.95 "HgN/A
3:00 PM82 °FPassing clouds.10 mph28%29.98 "HgN/A
2:00 PM81 °FPassing clouds.10 mph37%30.01 "HgN/A
1:00 PM75 °FPassing clouds.10 mph44%30.01 "HgN/A
12:00 PM72 °FPassing clouds.10 mph53%30.04 "HgN/A
11:00 AM70 °FPassing clouds.8 mph57%30.07 "HgN/A
10:00 AM66 °FSunny.8 mph64%30.07 "Hg10 mi
9:00 AM63 °FSunny.10 mph73%30.07 "Hg10 mi
8:00 AM63 °FScattered clouds.8 mph73%30.07 "HgN/A
7:00 AM61 °FFog.6 mph83%30.04 "Hg2 mi
6:00 AM59 °FFog.3 mph94%30.04 "Hg2 mi
Weather by CustomWeather, © 2015

See weather overviewHow to use our weather pages